Location: Casilda
(33.0440°S, 61.1680°W)
Time: 04:42:30
(UTC-03:00)

ISS - Visible Passes

Search period start: 19 August 2018 00:00
Search period end: 29 August 2018 00:00
Orbit: 401 x 409 km, 51.6° (Epoch: 19 August)

Date Brightness Start Highest point End Pass type
(mag) Time Alt. Az. Time Alt. Az. Time Alt. Az.
21 Aug -3.2 20:04:57 10° NNW 20:07:42 43° NNE 20:07:42 43° NNE visible
22 Aug -2.3 19:13:40 10° N 19:16:14 21° NE 19:18:32 12° E visible
22 Aug -1.1 20:49:41 10° W 20:51:15 21° WSW 20:51:15 21° WSW visible
23 Aug -3.2 19:57:13 10° WNW 20:00:30 55° SW 20:01:57 28° SSE visible
24 Aug -3.7 19:05:10 10° NW 19:08:26 65° NE 19:11:46 10° SE visible
24 Aug -0.9 20:43:27 10° WSW 20:45:14 14° SSW 20:45:14 14° SSW visible
25 Aug -1.6 19:50:15 10° W 19:52:56 22° SW 19:55:41 10° SSE visible
27 Aug -0.9 19:44:23 10° SW 19:45:32 11° SSW 19:46:43 10° S visible
